GFSNE_850_thetae_129.txt.gz
Theta_e
325 324 326 326 325 325 326 325 324 322 321 322 322 323 323 323 322 322 322 322 322 321 321 320 320 320 319 318 319 321 320 320 319 320 320 319 320 318
324 325 326 326 326 325 323 323 322 322 322 323 323 323 322 323 322 321 321 321 320 319 316 314 312 313 314 315 317 318 320 320 319 319 319 318 318 317
324 324 325 325 324 322 322 322 322 322 322 322 321 322 321 321 320 319 317 312 307 305 305 305 304 305 306 310 314 315 316 317 319 319 319 319 319 317
323 322 323 322 322 322 322 322 321 320 319 318 318 317 313 309 305 302 300 298 298 297 297 297 299 302 305 307 309 309 311 314 315 317 316 317 316 315
320 322 320 320 320 319 318 316 315 311 307 305 302 299 297 297 297 296 296 296 297 297 297 297 297 297 299 302 305 307 308 310 312 314 314 314 314 315
315 313 310 310 308 304 302 300 298 297 296 296 295 295 295 294 294 294 294 294 294 294 293 294 295 299 301 300 301 303 305 307 307 311 311 311 311 313
299 298 298 297 297 296 296 295 295 294 294 294 293 293 293 293 293 293 293 292 293 292 293 294 293 295 295 297 298 300 302 303 306 308 309 309 309 311
296 296 295 295 295 294 294 293 293 293 292 292 292 292 292 292 292 292 292 292 293 294 295 295 296 295 294 297 298 300 300 301 304 306 307 307 308 308
294 294 294 293 293 293 292 292 292 291 291 291 291 291 291 291 292 292 292 293 293 293 293 294 296 295 296 297 297 298 300 301 302 303 305 305 305 305
293 292 292 292 292 292 291 291 291 291 291 291 290 291 291 291 292 292 292 292 292 293 294 294 295 296 296 297 298 299 300 300 301 302 302 304 304 304
292 291 291 291 291 290 291 291 291 291 291 291 291 290 290 291 291 291 292 292 293 293 293 293 295 295 295 297 297 298 299 298 299 300 302 302 303 302
291 291 291 291 290 290 290 290 290 290 290 290 290 290 290 290 290 291 291 291 292 293 293 294 294 294 295 296 297 296 296 297 299 300 301 300 299 299
291 290 290 290 290 289 289 289 289 288 289 288 289 290 290 290 290 290 291 291 292 293 294 293 294 295 295 295 295 296 295 295 297 298 297 297 297 297
290 290 290 289 289 288 288 288 287 287 287 288 288 288 289 289 290 291 291 292 292 293 294 294 293 294 294 293 293 294 293 294 295 294 295 295 295 295
290 289 289 289 289 288 288 288 287 287 287 287 286 286 286 286 287 290 291 291 292 293 293 293 293 292 293 293 293 293 293 293 293 293 293 294 293 294
289 289 289 289 288 288 288 287 287 287 286 285 284 284 284 285 285 286 288 290 292 293 293 293 292 292 292 292 292 293 292 291 292 291 291 292 292 289
289 288 288 288 288 288 288 287 287 286 286 285 284 284 284 284 285 286 287 288 289 290 292 292 292 291 291 291 291 291 291 290 291 291 290 290 288 288
288 288 288 288 288 288 287 287 287 286 286 285 286 285 285 285 285 286 286 287 288 290 290 291 290 289 290 290 290 291 290 290 290 290 290 288 287 288
288 288 287 287 287 287 286 286 286 285 285 285 285 284 283 285 286 286 286 286 288 288 289 289 289 289 289 288 290 290 289 289 289 289 288 287 287 288
287 287 287 286 286 286 286 285 285 285 284 284 284 284 284 284 285 285 286 287 287 288 288 289 289 289 289 288 289 290 289 287 287 288 287 287 287 288
285 285 286 286 286 286 285 285 285 285 283 282 284 285 285 284 285 285 286 286 287 287 288 288 288 289 289 288 288 288 287 286 287 287 287 288 287 288
284 285 285 285 286 285 285 284 284 284 283 283 283 285 285 284 285 285 286 286 287 287 288 288 288 288 288 288 288 288 286 286 286 287 288 287 288 288
284 285 285 285 285 285 284 283 283 284 283 282 283 284 285 285 285 285 286 286 287 287 287 288 288 287 287 288 288 287 285 286 286 287 287 288 289 287

GFSNE_850_thetae_132.txt.gz
Theta_e
323 326 327 324 324 324 325 325 324 325 324 325 323 322 322 322 323 323 323 321 321 322 322 321 320 320 320 317 314 313 313 314 317 320 320 320 318 321
322 322 322 322 322 322 325 324 323 324 323 322 322 323 323 323 322 322 322 321 321 321 320 319 316 313 307 306 305 305 306 310 315 317 318 319 319 320
322 321 320 321 321 322 324 323 322 323 322 322 322 321 320 321 319 319 319 318 316 310 305 301 299 298 298 298 299 301 303 305 307 310 314 317 318 320
320 320 320 320 320 322 322 321 322 320 320 319 319 319 318 314 310 302 299 298 297 297 297 296 296 296 296 297 297 299 301 304 306 307 308 311 315 318
319 319 317 317 317 315 317 316 319 317 316 313 307 301 298 296 296 295 295 295 294 294 294 294 294 293 294 294 297 299 299 300 303 305 307 308 311 315
314 316 312 309 312 311 304 302 299 297 296 295 295 294 294 293 293 293 293 293 293 293 293 293 293 293 294 294 295 295 296 298 300 302 303 305 307 313
308 306 298 298 296 295 295 295 294 293 293 293 292 292 292 292 292 292 292 292 292 292 293 293 293 293 293 295 295 295 297 298 299 300 301 303 305 309
296 295 295 294 294 293 293 292 292 292 292 292 292 291 292 291 291 291 292 292 292 293 292 293 294 293 294 296 296 297 297 297 298 299 300 302 305 306
294 294 293 293 292 292 292 291 291 291 291 291 291 291 291 291 291 291 292 292 292 292 291 292 293 294 295 294 295 296 297 298 299 300 300 301 303 305
293 292 292 292 291 291 291 291 291 291 291 291 291 291 291 291 290 290 291 292 292 291 291 293 293 294 294 295 296 297 296 296 297 298 299 300 301 302
292 291 291 291 291 290 291 291 291 291 290 291 290 290 290 290 289 289 291 291 290 291 292 292 293 292 294 295 296 296 296 295 296 297 299 300 301 302
291 290 290 290 291 291 291 291 291 290 290 290 290 289 289 289 289 288 287 288 290 290 291 291 293 291 291 294 295 295 296 294 295 296 298 300 301 302
290 290 290 290 290 290 290 290 289 289 289 289 289 289 289 288 288 288 287 287 289 289 291 290 291 293 291 291 292 293 293 293 294 295 296 297 298 298
290 290 290 290 290 290 289 289 289 288 288 288 288 288 288 288 287 286 287 288 289 289 291 292 291 292 291 291 291 292 293 293 293 294 295 294 295 295
290 290 289 289 289 289 288 288 288 287 287 287 287 287 287 287 287 287 287 287 289 290 291 291 291 291 291 291 291 291 292 292 293 293 293 292 293 293
290 290 289 289 289 289 288 288 287 287 287 286 286 287 287 287 287 285 285 286 286 289 290 290 291 290 290 291 291 291 291 291 292 291 291 291 291 292
289 289 289 288 288 288 287 287 287 287 286 286 286 286 286 286 286 286 286 286 286 287 288 289 289 290 290 290 290 290 291 291 290 290 290 290 288 288
289 289 288 288 288 287 287 287 287 286 286 286 286 286 285 285 286 286 286 286 286 287 287 288 289 288 289 290 290 290 290 290 289 289 289 290 287 288
288 288 287 287 287 287 287 287 287 286 286 286 285 285 285 285 285 285 286 286 286 287 287 288 288 288 287 288 288 289 289 290 289 288 289 287 287 288
288 287 286 286 286 286 286 286 286 285 285 285 283 283 284 284 285 285 285 285 286 286 287 287 288 287 287 288 288 288 289 289 288 288 289 287 287 289
287 286 284 285 285 286 286 286 285 284 284 284 283 282 283 284 285 284 285 285 285 286 287 287 288 288 288 288 288 288 288 287 287 287 286 288 289 289
286 284 284 284 284 285 285 285 284 283 283 283 283 282 282 284 284 284 285 285 285 286 286 287 287 287 288 288 288 287 287 287 287 286 288 289 290 290
285 284 284 284 285 285 285 284 284 283 283 284 283 283 282 283 284 284 285 285 285 285 286 287 287 287 287 287 287 287 286 286 286 288 288 287 287 286

GFSNE_850_thetae_135.txt.gz
Theta_e
324 323 323 323 323 323 323 322 322 323 323 323 323 324 324 323 322 322 321 322 323 323 321 321 321 322 321 321 319 317 312 308 306 305 306 310 315 319
322 322 322 322 321 321 321 321 320 321 322 321 322 322 322 321 322 321 321 321 321 321 320 320 319 318 312 306 303 300 298 298 298 299 301 303 308 316
320 320 320 320 321 323 319 320 320 319 320 322 321 318 317 319 318 319 319 317 318 316 313 308 301 298 297 296 296 296 296 297 297 297 298 300 304 308
318 319 319 319 319 320 319 318 320 319 320 319 318 316 315 315 316 316 306 297 297 296 295 295 294 294 294 294 294 294 294 296 298 298 298 299 302 304
316 316 316 316 317 317 315 313 315 314 314 315 315 314 310 306 297 294 294 294 294 293 293 293 293 293 293 293 293 294 294 294 295 295 296 298 299 302
314 313 313 312 312 313 310 305 302 303 296 296 295 294 294 294 293 293 293 293 293 293 293 293 293 293 293 293 293 294 295 295 295 296 297 298 299 300
308 306 303 300 299 299 296 295 294 294 293 293 292 292 292 292 292 292 292 292 293 293 293 293 293 293 294 294 294 294 296 296 296 296 296 297 298 298
296 296 295 294 294 293 293 292 292 291 291 291 291 291 291 291 291 291 291 291 292 292 292 293 292 293 294 294 295 294 295 297 297 297 298 298 297 299
294 293 293 293 292 292 291 291 291 291 291 291 291 291 290 290 290 290 290 290 290 291 290 291 292 293 294 294 294 295 296 295 295 295 295 297 298 298
292 292 292 291 291 291 291 291 291 291 291 290 290 290 290 289 289 289 289 289 289 290 289 289 290 291 293 294 294 296 296 295 295 294 294 297 298 299
292 291 291 291 291 291 290 290 290 290 290 290 290 289 289 289 289 289 289 288 288 289 290 290 290 291 292 293 294 294 294 292 294 294 295 297 298 300
291 291 290 290 290 290 290 290 290 290 290 290 289 289 289 289 288 288 287 285 286 287 289 289 289 290 289 292 293 293 293 292 292 293 294 295 297 299
290 290 290 290 290 290 290 290 290 290 289 289 289 289 289 289 288 288 286 285 286 286 287 288 289 290 289 289 293 293 292 292 292 293 294 293 294 296
290 290 290 290 290 290 290 290 290 289 289 289 288 288 288 288 288 287 287 286 285 286 286 288 288 289 289 289 289 292 293 292 292 292 292 293 293 294
290 290 290 290 289 289 289 289 289 288 288 288 288 288 287 287 287 286 287 286 286 285 286 288 288 288 288 288 289 291 290 292 292 291 292 292 292 292
290 290 290 290 289 289 288 288 288 288 287 287 287 287 287 287 287 287 287 288 287 287 287 287 287 287 289 289 289 290 290 289 291 291 291 291 291 290
290 290 289 289 289 288 288 287 287 287 287 287 287 287 287 287 287 287 286 287 286 287 287 288 288 288 288 288 289 290 289 289 290 290 290 290 291 288
290 289 289 287 288 288 287 287 287 287 287 286 286 286 286 286 286 286 285 286 286 286 286 287 287 287 288 289 289 289 289 289 289 289 289 290 288 288
289 288 288 287 287 287 286 286 287 286 286 286 286 285 285 285 285 286 285 285 286 286 286 286 287 287 287 287 288 288 288 289 289 289 289 288 287 288
289 288 287 287 287 286 286 286 286 286 285 285 285 285 284 283 284 285 285 285 285 285 286 286 287 287 287 287 287 288 288 288 287 288 289 287 288 291
288 288 287 286 286 285 285 286 286 285 285 284 284 283 283 282 283 284 284 285 284 285 286 286 286 287 287 287 287 287 288 287 286 287 287 289 291 291
288 287 287 286 284 284 285 285 285 285 284 283 283 283 283 283 282 283 284 285 285 285 285 286 287 287 287 287 287 287 287 287 286 287 289 289 289 290
288 287 286 284 285 285 285 285 285 285 284 283 283 284 284 284 283 283 284 284 284 285 285 286 286 287 287 286 286 287 286 286 286 288 288 288 288 289

GFSNE_850_thetae_141.txt.gz
Theta_e
320 320 319 318 319 322 323 324 322 320 320 320 321 321 321 321 320 319 319 321 321 322 322 321 321 321 321 321 321 320 320 320 320 318 316 312 302 298
318 319 320 321 321 320 321 323 323 322 322 320 320 319 319 319 318 317 319 318 317 318 318 319 318 318 319 319 318 312 308 303 302 300 297 296 296 296
317 317 319 320 321 321 321 321 320 318 320 319 317 319 317 317 316 315 314 314 314 314 315 316 317 315 309 301 300 297 296 295 295 295 295 295 294 294
314 315 315 317 317 317 317 317 316 316 317 316 316 314 314 313 311 312 312 312 308 307 309 305 298 297 296 296 294 294 294 294 294 294 294 294 294 294
312 313 314 314 314 314 313 313 313 313 314 313 311 308 306 304 298 295 294 294 294 294 294 294 293 294 293 293 293 293 293 293 293 294 294 295 295 295
312 311 312 312 312 311 312 311 309 306 303 301 302 301 299 294 293 293 293 293 293 293 293 293 293 293 293 293 293 293 293 293 294 295 294 296 296 296
309 309 307 306 306 303 300 297 295 294 293 293 293 293 292 292 292 292 292 292 292 292 292 293 292 292 292 292 292 293 293 294 294 296 296 295 296 296
296 296 295 295 294 293 293 292 292 292 292 292 292 292 292 291 291 291 292 292 291 291 291 292 291 292 292 292 292 292 293 294 295 295 294 294 295 295
294 293 293 293 292 292 292 292 292 291 291 291 291 291 291 290 290 290 290 290 290 290 290 292 291 291 292 291 291 292 293 294 294 294 294 294 295 295
293 292 292 292 291 291 291 291 291 291 291 291 290 290 290 290 290 289 289 290 290 290 289 290 291 291 291 291 291 292 292 292 292 293 293 294 294 294
292 291 291 291 291 290 290 290 290 290 290 290 290 290 289 289 289 289 289 288 289 290 289 288 289 290 291 291 291 292 291 291 292 292 293 293 293 294
291 291 291 291 291 290 290 290 290 290 289 289 289 289 289 288 288 288 288 288 288 288 288 286 288 287 287 291 291 290 290 291 291 292 293 293 293 293
291 291 290 290 290 290 290 290 289 289 289 289 288 288 288 288 288 288 288 288 287 287 288 286 286 286 286 286 289 290 290 290 290 292 292 292 292 292
290 290 290 290 290 290 290 290 290 289 288 288 288 288 288 288 288 287 287 287 287 287 287 287 286 285 286 286 286 289 289 289 290 291 291 292 292 292
291 290 290 290 290 290 289 289 289 288 288 288 288 288 287 287 287 287 287 287 287 287 287 287 286 286 286 286 287 287 288 289 290 290 290 291 291 291
291 291 290 290 290 289 289 288 288 288 288 287 287 287 287 286 286 286 286 287 287 288 287 286 286 286 287 287 287 288 288 288 289 289 289 290 290 290
291 291 290 290 290 289 288 288 288 288 287 287 287 287 286 286 286 285 285 286 286 286 287 287 286 286 287 287 287 288 288 288 288 288 289 289 290 287
291 291 290 290 290 289 288 287 287 287 287 287 287 286 286 286 286 285 285 284 285 286 286 285 286 287 287 288 287 287 287 287 287 288 287 287 290 289
291 291 291 290 290 288 288 287 287 287 287 286 286 286 285 285 285 285 284 284 284 285 286 285 285 285 285 285 287 287 286 287 287 288 287 287 288 290
291 291 291 290 289 288 288 287 286 286 286 286 286 284 284 284 284 285 284 284 284 285 285 285 285 285 285 284 285 287 286 287 287 287 287 288 289 291
292 291 291 290 289 288 287 287 286 285 285 285 285 283 283 284 284 284 284 284 283 284 285 285 285 285 285 286 286 286 287 286 286 286 287 288 288 291
292 291 290 289 289 288 288 287 285 285 285 285 285 284 284 283 284 284 284 284 283 284 284 285 285 285 285 285 286 286 286 287 287 287 288 287 287 287
292 291 290 290 289 288 287 286 286 285 285 285 284 284 284 284 284 283 283 283 283 284 284 285 285 285 285 285 286 286 286 286 287 287 288 288 288 288